| time (UTC) | temp F | wind direction | speed MPH | gust MPH | rain 1hr in | rain 24hr in | rain mn in | humidity % | barometer mb |
| 20260508122645 | 40 | 97 | 4.0 | 6.0 | 0.00 | 0.00 | 0.00 | 76 | 1009.0 |
| 20260508122138 | 40 | 89 | 4.0 | 7.0 | 0.00 | 0.00 | 0.00 | 76 | 1009.1 |
| 20260508122118 | 39 | 96 | 3.0 | 7.0 | 0.00 | 0.00 | 0.00 | 77 | 1009.0 |
| 20260508121127 | 38 | 91 | 3.0 | 6.0 | 0.00 | 0.00 | 0.00 | 78 | 1009.0 |
| 20260508120621 | 37 | 102 | 3.0 | 4.0 | 0.00 | 0.00 | 0.00 | 80 | 1008.9 |
| 20260508120115 | 37 | 99 | 3.0 | 4.0 | 0.00 | 0.00 | 0.00 | 80 | 1008.9 |
| 20260508115608 | 36 | 94 | 2.0 | 4.0 | 0.00 | 0.00 | 0.00 | 81 | 1008.8 |
| 20260508115102 | 35 | 92 | 2.0 | 3.0 | 0.00 | 0.00 | 0.00 | 82 | 1008.8 |
| 20260508114557 | 35 | 92 | 2.0 | 3.0 | 0.00 | 0.00 | 0.00 | 82 | 1008.8 |
| 20260508114050 | 34 | 92 | 2.0 | 3.0 | 0.00 | 0.00 | 0.00 | 82 | 1008.7 |
| 20260508113804 | 34 | 92 | 2.0 | 3.0 | 0.00 | 0.00 | 0.00 | 82 | 1008.7 |
| 20260508113038 | 34 | 92 | 2.0 | 3.0 | 0.00 | 0.00 | 0.00 | 81 | 1008.7 |
| 20260508112533 | 34 | 92 | 2.0 | 3.0 | 0.00 | 0.00 | 0.00 | 80 | 1008.8 |
| 20260508112026 | 35 | 93 | 2.0 | 3.0 | 0.00 | 0.00 | 0.00 | 80 | 1008.8 |
| 20260508111520 | 35 | 93 | 2.0 | 3.0 | 0.00 | 0.00 | 0.00 | 80 | 1008.7 |
| 20260508111014 | 35 | 93 | 2.0 | 3.0 | 0.00 | 0.00 | 0.00 | 81 | 1008.8 |
| 20260508110515 | 34 | 93 | 2.0 | 3.0 | 0.00 | 0.00 | 0.00 | 81 | 1008.7 |
| 20260508110013 | 34 | 93 | 2.0 | 3.0 | 0.00 | 0.00 | 0.00 | 80 | 1008.7 |
| 20260508105510 | 35 | 93 | 2.0 | 3.0 | 0.00 | 0.00 | 0.00 | 79 | 1008.7 |
| 20260508105010 | 35 | 93 | 2.0 | 3.0 | 0.00 | 0.00 | 0.00 | 79 | 1008.8 |
| 20260508104510 | 35 | 93 | 2.0 | 3.0 | 0.00 | 0.00 | 0.00 | 79 | 1008.8 |
| 20260508104454 | 35 | 93 | 2.0 | 3.0 | 0.00 | 0.00 | 0.00 | 79 | 1008.8 |
| 20260508103727 | 35 | 93 | 2.0 | 3.0 | 0.00 | 0.00 | 0.00 | 79 | 1008.9 |
| 20260508103006 | 35 | 93 | 2.0 | 3.0 | 0.00 | 0.00 | 0.00 | 80 | 1008.9 |
| 20260508102729 | 35 | 93 | 2.0 | 3.0 | 0.00 | 0.00 | 0.00 | 79 | 1008.8 |
| 20260508102006 | 35 | 93 | 2.0 | 3.0 | 0.00 | 0.00 | 0.00 | 79 | 1008.9 |
| 20260508101506 | 35 | 93 | 2.0 | 3.0 | 0.00 | 0.00 | 0.00 | 79 | 1008.8 |
| 20260508101006 | 35 | 93 | 2.0 | 3.0 | 0.00 | 0.00 | 0.00 | 79 | 1009.0 |
| 20260508100506 | 35 | 93 | 2.0 | 3.0 | 0.00 | 0.00 | 0.00 | 79 | 1008.9 |
| 20260508100003 | 35 | 93 | 2.0 | 3.0 | 0.00 | 0.00 | 0.00 | 79 | 1009.0 |
| 20260508095502 | 35 | 93 | 2.0 | 3.0 | 0.00 | 0.00 | 0.00 | 80 | 1009.1 |
| 20260508095002 | 35 | 93 | 2.0 | 3.0 | 0.00 | 0.00 | 0.00 | 81 | 1009.0 |
| 20260508094503 | 35 | 93 | 2.0 | 3.0 | 0.00 | 0.00 | 0.00 | 81 | 1008.9 |
| 20260508094003 | 34 | 92 | 2.0 | 3.0 | 0.00 | 0.00 | 0.00 | 81 | 1009.0 |
| 20260508093503 | 34 | 92 | 2.0 | 4.0 | 0.00 | 0.00 | 0.00 | 81 | 1009.0 |
| 20260508093003 | 34 | 93 | 2.0 | 4.0 | 0.00 | 0.00 | 0.00 | 81 | 1009.0 |
| 20260508092502 | 33 | 87 | 2.0 | 4.0 | 0.00 | 0.00 | 0.00 | 81 | 1009.2 |
| 20260508092224 | 33 | 91 | 2.0 | 4.0 | 0.00 | 0.00 | 0.00 | 81 | 1009.1 |
| 20260508091503 | 33 | 91 | 2.0 | 3.0 | 0.00 | 0.00 | 0.00 | 80 | 1009.1 |
| 20260508091003 | 33 | 90 | 2.0 | 3.0 | 0.00 | 0.00 | 0.00 | 80 | 1009.2 |
| 20260508090503 | 33 | 90 | 2.0 | 3.0 | 0.00 | 0.00 | 0.00 | 81 | 1009.2 |
| 20260508090003 | 33 | 90 | 1.0 | 3.0 | 0.00 | 0.00 | 0.00 | 81 | 1009.3 |
| 20260508085727 | 33 | 90 | 1.0 | 3.0 | 0.00 | 0.00 | 0.00 | 80 | 1009.4 |
| 20260508085002 | 33 | 82 | 1.0 | 3.0 | 0.00 | 0.00 | 0.00 | 80 | 1009.5 |
| 20260508084502 | 32 | 82 | 2.0 | 3.0 | 0.00 | 0.00 | 0.00 | 81 | 1009.5 |
| 20260508084003 | 32 | 82 | 2.0 | 4.0 | 0.00 | 0.00 | 0.00 | 80 | 1009.4 |
| 20260508083725 | 32 | 82 | 2.0 | 4.0 | 0.00 | 0.00 | 0.00 | 79 | 1009.4 |
| 20260508082955 | 32 | 80 | 2.0 | 3.0 | 0.00 | 0.00 | 0.00 | 79 | 1009.4 |
| 20260508082450 | 32 | 80 | 2.0 | 3.0 | 0.00 | 0.00 | 0.00 | 79 | 1009.4 |
| 20260508081943 | 32 | 80 | 1.0 | 2.0 | 0.00 | 0.00 | 0.00 | 80 | 1009.5 |
| 20260508081438 | 32 | 80 | 1.0 | 3.0 | 0.00 | 0.00 | 0.00 | 79 | 1009.5 |
| 20260508080932 | 32 | 80 | 1.0 | 3.0 | 0.00 | 0.00 | 0.00 | 78 | 1009.4 |
| 20260508080425 | 32 | 62 | 2.0 | 3.0 | 0.00 | 0.00 | 0.00 | 78 | 1009.4 |
| 20260508075920 | 32 | 46 | 2.0 | 3.0 | 0.00 | 0.00 | 0.00 | 77 | 1009.4 |
| 20260508075640 | 33 | 46 | 1.0 | 3.0 | 0.00 | 0.00 | 0.00 | 77 | 1009.5 |
| 20260508075125 | 33 | 28 | 1.0 | 3.0 | 0.00 | 0.00 | 0.00 | 76 | 1009.6 |
| 20260508074401 | 33 | 27 | 1.0 | 2.0 | 0.00 | 0.00 | 0.00 | 76 | 1009.5 |
| 20260508073856 | 33 | 27 | 1.0 | 2.0 | 0.00 | 0.00 | 0.00 | 77 | 1009.6 |
| 20260508073349 | 33 | 27 | 1.0 | 2.0 | 0.00 | 0.00 | 0.00 | 77 | 1009.6 |
| 20260508072843 | 33 | 27 | 0.0 | 2.0 | 0.00 | 0.00 | 0.00 | 75 | 1009.6 |
| 20260508072339 | 33 | 27 | 0.0 | 2.0 | 0.00 | 0.00 | 0.00 | 75 | 1009.5 |
| 20260508071831 | 34 | 26 | 0.0 | 1.0 | 0.00 | 0.00 | 0.00 | 76 | 1009.7 |
| 20260508071326 | 34 | 26 | 0.0 | 2.0 | 0.00 | 0.00 | 0.00 | 76 | 1009.7 |
| 20260508070820 | 34 | 26 | 0.0 | 0.0 | 0.00 | 0.00 | 0.00 | 76 | 1009.8 |
| 20260508070313 | 34 | 26 | 0.0 | 0.0 | 0.00 | 0.00 | 0.00 | 75 | 1009.7 |
| 20260508065807 | 34 | 26 | 0.0 | 0.0 | 0.00 | 0.00 | 0.00 | 74 | 1009.8 |
| 20260508065306 | 34 | 26 | 0.0 | 0.0 | 0.00 | 0.00 | 0.00 | 74 | 1009.8 |
| 20260508064755 | 34 | 26 | 0.0 | 0.0 | 0.00 | 0.00 | 0.00 | 74 | 1009.8 |
| 20260508064249 | 34 | 26 | 0.0 | 0.0 | 0.00 | 0.00 | 0.00 | 74 | 1009.9 |
| 20260508063744 | 35 | 26 | 0.0 | 0.0 | 0.00 | 0.00 | 0.00 | 74 | 1009.8 |
| 20260508063238 | 35 | 26 | 0.0 | 0.0 | 0.00 | 0.00 | 0.00 | 74 | 1009.8 |
| 20260508062732 | 35 | 26 | 0.0 | 0.0 | 0.00 | 0.00 | 0.00 | 73 | 1009.9 |
| 20260508062225 | 35 | 26 | 0.0 | 0.0 | 0.00 | 0.00 | 0.00 | 73 | 1010.0 |
| 20260508061721 | 35 | 26 | 0.0 | 0.0 | 0.00 | 0.00 | 0.00 | 71 | 1010.0 |
| 20260508061213 | 35 | 26 | 0.0 | 1.0 | 0.00 | 0.00 | 0.00 | 71 | 1010.1 |
| 20260508060929 | 35 | 26 | 0.0 | 1.0 | 0.00 | 0.00 | 0.00 | 71 | 1010.3 |
| 20260508060202 | 36 | 26 | 0.0 | 0.0 | 0.00 | 0.00 | 0.00 | 69 | 1010.1 |
| 20260508055655 | 36 | 26 | 0.0 | 0.0 | 0.00 | 0.00 | 0.00 | 69 | 1010.1 |
| 20260508055150 | 36 | 26 | 0.0 | 0.0 | 0.00 | 0.00 | 0.00 | 69 | 1010.3 |
| 20260508054644 | 37 | 26 | 0.0 | 0.0 | 0.00 | 0.00 | 0.00 | 69 | 1010.4 |
| 20260508054137 | 37 | 26 | 0.0 | 0.0 | 0.00 | 0.00 | 0.00 | 67 | 1010.3 |
| 20260508053632 | 37 | 26 | 0.0 | 0.0 | 0.00 | 0.00 | 0.00 | 67 | 1010.3 |
| 20260508053125 | 37 | 26 | 0.0 | 0.0 | 0.00 | 0.00 | 0.00 | 66 | 1010.4 |
| 20260508052620 | 37 | 26 | 0.0 | 0.0 | 0.00 | 0.00 | 0.00 | 67 | 1010.3 |
| 20260508052557 | 38 | 26 | 0.0 | 0.0 | 0.00 | 0.00 | 0.00 | 66 | 1010.4 |
| 20260508051608 | 38 | 26 | 0.0 | 0.0 | 0.00 | 0.00 | 0.00 | 66 | 1010.5 |
| 20260508051101 | 38 | 26 | 0.0 | 0.0 | 0.00 | 0.00 | 0.00 | 66 | 1010.5 |
| 20260508050558 | 38 | 26 | 0.0 | 0.0 | 0.00 | 0.00 | 0.00 | 66 | 1010.5 |
| 20260508050057 | 38 | 26 | 0.0 | 0.0 | 0.00 | 0.00 | 0.00 | 64 | 1010.6 |
| 20260508045557 | 38 | 26 | 0.0 | 0.0 | 0.00 | 0.00 | 0.00 | 64 | 1010.6 |
| 20260508045057 | 38 | 26 | 0.0 | 0.0 | 0.00 | 0.00 | 0.00 | 65 | 1010.5 |
| 20260508044556 | 39 | 26 | 0.0 | 0.0 | 0.00 | 0.00 | 0.00 | 66 | 1010.5 |
| 20260508044315 | 39 | 26 | 0.0 | 0.0 | 0.00 | 0.00 | 0.00 | 66 | 1010.6 |
| 20260508044044 | 39 | 26 | 0.0 | 0.0 | 0.00 | 0.00 | 0.00 | 65 | 1010.6 |
| 20260508043056 | 39 | 26 | 0.0 | 0.0 | 0.00 | 0.00 | 0.00 | 65 | 1010.6 |
| 20260508042556 | 39 | 26 | 0.0 | 0.0 | 0.00 | 0.00 | 0.00 | 63 | 1010.6 |
| 20260508042056 | 39 | 26 | 0.0 | 0.0 | 0.00 | 0.00 | 0.00 | 61 | 1010.7 |
| 20260508041550 | 39 | 26 | 0.0 | 0.0 | 0.00 | 0.00 | 0.00 | 60 | 1010.6 |
| 20260508041301 | 39 | 26 | 0.0 | 0.0 | 0.00 | 0.00 | 0.00 | 59 | 1010.6 |
| 20260508040538 | 40 | 26 | 0.0 | 0.0 | 0.00 | 0.00 | 0.00 | 60 | 1010.7 |
| 20260508040032 | 40 | 26 | 0.0 | 0.0 | 0.00 | 0.00 | 0.00 | 60 | 1010.6 |
| 20260508035526 | 40 | 26 | 0.0 | 0.0 | 0.00 | 0.00 | 0.00 | 61 | 1010.6 |
| 20260508035021 | 40 | 26 | 0.0 | 0.0 | 0.00 | 0.00 | 0.00 | 62 | 1010.6 |
| 20260508034514 | 40 | 26 | 0.0 | 0.0 | 0.00 | 0.00 | 0.00 | 62 | 1010.6 |
| 20260508034008 | 40 | 26 | 0.0 | 0.0 | 0.00 | 0.00 | 0.00 | 63 | 1010.7 |
| 20260508033501 | 40 | 26 | 0.0 | 0.0 | 0.00 | 0.00 | 0.00 | 59 | 1010.7 |
| 20260508032956 | 40 | 26 | 0.0 | 0.0 | 0.00 | 0.00 | 0.00 | 57 | 1010.7 |
| 20260508032707 | 40 | 26 | 0.0 | 0.0 | 0.00 | 0.00 | 0.00 | 58 | 1010.6 |
| 20260508031944 | 40 | 25 | 0.0 | 0.0 | 0.00 | 0.00 | 0.00 | 61 | 1010.6 |
| 20260508031437 | 41 | 25 | 0.0 | 0.0 | 0.00 | 0.00 | 0.00 | 66 | 1010.6 |
| 20260508030932 | 41 | 25 | 0.0 | 0.0 | 0.00 | 0.00 | 0.00 | 65 | 1010.6 |
| 20260508030426 | 41 | 25 | 0.0 | 0.0 | 0.00 | 0.00 | 0.00 | 58 | 1010.6 |
| 20260508025919 | 41 | 25 | 0.0 | 0.0 | 0.00 | 0.00 | 0.00 | 54 | 1010.6 |
| 20260508025414 | 41 | 25 | 0.0 | 0.0 | 0.00 | 0.00 | 0.00 | 57 | 1010.6 |
| 20260508025127 | 42 | 25 | 0.0 | 2.0 | 0.00 | 0.00 | 0.00 | 56 | 1010.5 |
| 20260508024402 | 42 | 25 | 1.0 | 2.0 | 0.00 | 0.00 | 0.00 | 58 | 1010.4 |
| 20260508023855 | 43 | 25 | 0.0 | 2.0 | 0.00 | 0.00 | 0.00 | 61 | 1010.4 |
| 20260508023350 | 44 | 25 | 0.0 | 2.0 | 0.00 | 0.00 | 0.00 | 53 | 1010.4 |
| 20260508022843 | 44 | 25 | 0.0 | 2.0 | 0.00 | 0.00 | 0.00 | 47 | 1010.5 |
| 20260508022557 | 44 | 25 | 0.0 | 0.0 | 0.00 | 0.00 | 0.00 | 47 | 1010.4 |
| 20260508021832 | 44 | 25 | 0.0 | 0.0 | 0.00 | 0.00 | 0.00 | 47 | 1010.4 |
| 20260508021325 | 44 | 25 | 0.0 | 0.0 | 0.00 | 0.00 | 0.00 | 49 | 1010.4 |
| 20260508020820 | 44 | 25 | 0.0 | 0.0 | 0.00 | 0.00 | 0.00 | 50 | 1010.4 |
| 20260508020313 | 44 | 25 | 0.0 | 0.0 | 0.00 | 0.00 | 0.00 | 50 | 1010.3 |
| 20260508015807 | 44 | 25 | 0.0 | 2.0 | 0.00 | 0.00 | 0.00 | 51 | 1010.4 |
| 20260508015524 | 45 | 25 | 0.0 | 2.0 | 0.00 | 0.00 | 0.00 | 51 | 1010.1 |
| 20260508014756 | 46 | 25 | 0.0 | 2.0 | 0.00 | 0.00 | 0.00 | 47 | 1010.0 |
| 20260508014251 | 46 | 25 | 0.0 | 2.0 | 0.00 | 0.00 | 0.00 | 45 | 1010.0 |
| 20260508013743 | 46 | 25 | 0.0 | 0.0 | 0.00 | 0.00 | 0.00 | 46 | 1010.0 |
| 20260508013238 | 47 | 25 | 0.0 | 0.0 | 0.00 | 0.00 | 0.00 | 44 | 1009.9 |
| 20260508012732 | 47 | 25 | 0.0 | 0.0 | 0.00 | 0.00 | 0.00 | 44 | 1009.9 |
| 20260508012225 | 48 | 25 | 0.0 | 0.0 | 0.00 | 0.00 | 0.00 | 43 | 1009.9 |
| 20260508011720 | 49 | 25 | 0.0 | 0.0 | 0.00 | 0.00 | 0.00 | 44 | 1009.9 |
| 20260508011213 | 50 | 25 | 0.0 | 0.0 | 0.00 | 0.00 | 0.00 | 41 | 1009.9 |
| 20260508010928 | 50 | 25 | 0.0 | 0.0 | 0.00 | 0.00 | 0.00 | 39 | 1009.8 |
| 20260508010202 | 51 | 25 | 0.0 | 2.0 | 0.00 | 0.00 | 0.00 | 37 | 1009.7 |
| 20260508005655 | 51 | 25 | 0.0 | 2.0 | 0.00 | 0.00 | 0.00 | 39 | 1009.7 |
| 20260508005151 | 52 | 297 | 0.0 | 2.0 | 0.00 | 0.00 | 0.00 | 36 | 1009.7 |
| 20260508004644 | 52 | 297 | 0.0 | 2.0 | 0.00 | 0.00 | 0.00 | 35 | 1009.7 |
| 20260508004138 | 53 | 294 | 0.0 | 3.0 | 0.00 | 0.00 | 0.00 | 32 | 1009.7 |
| 20260508003631 | 53 | 294 | 1.0 | 4.0 | 0.00 | 0.00 | 0.00 | 33 | 1009.7 |
| 20260508003126 | 54 | 326 | 1.0 | 4.0 | 0.00 | 0.00 | 0.00 | 32 | 1009.7 |
| 20260508002840 | 54 | 19 | 1.0 | 4.0 | 0.00 | 0.00 | 0.00 | 34 | 1009.7 |
| 20260508002114 | 54 | 20 | 1.0 | 6.0 | 0.00 | 0.00 | 0.00 | 31 | 1009.7 |
| 20260508001607 | 54 | 329 | 1.0 | 6.0 | 0.00 | 0.00 | 0.00 | 31 | 1009.7 |
| 20260508001102 | 55 | 355 | 1.0 | 4.0 | 0.00 | 0.00 | 0.00 | 32 | 1009.7 |
| 20260508000555 | 55 | 295 | 1.0 | 4.0 | 0.00 | 0.00 | 0.00 | 30 | 1009.6 |
| 20260508000313 | 55 | 355 | 2.0 | 5.0 | 0.00 | 0.00 | 0.00 | 32 | 1009.6 |
| 20260507235544 | 56 | 302 | 3.0 | 8.0 | 0.00 | 0.00 | 0.00 | 30 | 1009.6 |
| 20260507235037 | 56 | 252 | 4.0 | 11.0 | 0.00 | 0.00 | 0.00 | 29 | 1009.5 |
| 20260507234532 | 56 | 311 | 2.0 | 11.0 | 0.00 | 0.00 | 0.00 | 29 | 1009.6 |
| 20260507234026 | 56 | 307 | 1.0 | 4.0 | 0.00 | 0.00 | 0.00 | 29 | 1009.5 |
| 20260507233520 | 56 | 315 | 2.0 | 8.0 | 0.00 | 0.00 | 0.00 | 30 | 1009.6 |
| 20260507233014 | 56 | 0 | 2.0 | 8.0 | 0.00 | 0.00 | 0.00 | 29 | 1009.5 |
| 20260507232507 | 56 | 311 | 3.0 | 10.0 | 0.00 | 0.00 | 0.00 | 29 | 1009.6 |
| 20260507232002 | 56 | 283 | 3.0 | 10.0 | 0.00 | 0.00 | 0.00 | 29 | 1009.5 |
| 20260507231456 | 56 | 286 | 3.0 | 9.0 | 0.00 | 0.00 | 0.00 | 27 | 1009.5 |
| 20260507230950 | 57 | 355 | 4.0 | 9.0 | 0.00 | 0.00 | 0.00 | 30 | 1009.5 |
| 20260507230443 | 57 | 291 | 3.0 | 9.0 | 0.00 | 0.00 | 0.00 | 27 | 1009.5 |
| 20260507225937 | 56 | 290 | 2.0 | 7.0 | 0.00 | 0.00 | 0.00 | 29 | 1009.5 |
| 20260507225432 | 57 | 344 | 3.0 | 11.0 | 0.00 | 0.00 | 0.00 | 29 | 1009.5 |
| 20260507224926 | 56 | 290 | 3.0 | 7.0 | 0.00 | 0.00 | 0.00 | 29 | 1009.6 |
| 20260507224419 | 56 | 40 | 3.0 | 7.0 | 0.00 | 0.00 | 0.00 | 27 | 1009.5 |
| 20260507224141 | 57 | 5 | 3.0 | 9.0 | 0.00 | 0.00 | 0.00 | 29 | 1009.6 |
| 20260507223408 | 57 | 11 | 3.0 | 10.0 | 0.00 | 0.00 | 0.00 | 27 | 1009.6 |
| 20260507222902 | 57 | 299 | 3.0 | 10.0 | 0.00 | 0.00 | 0.00 | 30 | 1009.6 |
| 20260507222355 | 57 | 36 | 4.0 | 9.0 | 0.00 | 0.00 | 0.00 | 27 | 1009.5 |
| 20260507221850 | 57 | 306 | 5.0 | 9.0 | 0.00 | 0.00 | 0.00 | 26 | 1009.6 |
| 20260507221343 | 58 | 265 | 5.0 | 14.0 | 0.00 | 0.00 | 0.00 | 27 | 1009.6 |
| 20260507220837 | 58 | 297 | 5.0 | 14.0 | 0.00 | 0.00 | 0.00 | 27 | 1009.6 |
| 20260507220338 | 58 | 304 | 3.0 | 9.0 | 0.00 | 0.00 | 0.00 | 28 | 1009.6 |
| 20260507215837 | 57 | 292 | 4.0 | 9.0 | 0.00 | 0.00 | 0.00 | 26 | 1009.7 |
| 20260507215337 | 58 | 340 | 5.0 | 9.0 | 0.00 | 0.00 | 0.00 | 27 | 1009.7 |
| 20260507214837 | 58 | 325 | 4.0 | 12.0 | 0.00 | 0.00 | 0.00 | 29 | 1009.7 |
| 20260507214337 | 57 | 234 | 6.0 | 14.0 | 0.00 | 0.00 | 0.00 | 31 | 1009.6 |
| 20260507214323 | 57 | 292 | 7.0 | 15.0 | 0.00 | 0.00 | 0.00 | 26 | 1009.7 |
| 20260507213555 | 58 | 298 | 6.0 | 15.0 | 0.00 | 0.00 | 0.00 | 27 | 1009.7 |
| 20260507212836 | 58 | 225 | 4.0 | 11.0 | 0.00 | 0.00 | 0.00 | 25 | 1009.7 |
| 20260507212602 | 58 | 302 | 3.0 | 8.0 | 0.00 | 0.00 | 0.00 | 28 | 1009.7 |
| 20260507211836 | 58 | 355 | 4.0 | 10.0 | 0.00 | 0.00 | 0.00 | 25 | 1009.7 |
| 20260507211604 | 58 | 317 | 5.0 | 10.0 | 0.00 | 0.00 | 0.00 | 26 | 1009.8 |
| 20260507210836 | 58 | 288 | 5.0 | 10.0 | 0.00 | 0.00 | 0.00 | 25 | 1009.9 |
| 20260507210558 | 58 | 342 | 4.0 | 10.0 | 0.00 | 0.00 | 0.00 | 27 | 1009.9 |
| 20260507210051 | 58 | 312 | 4.0 | 7.0 | 0.00 | 0.00 | 0.00 | 26 | 1009.9 |
| 20260507205332 | 58 | 268 | 4.0 | 9.0 | 0.00 | 0.00 | 0.00 | 26 | 1009.9 |
| 20260507204832 | 58 | 308 | 5.0 | 9.0 | 0.00 | 0.00 | 0.00 | 27 | 1009.9 |
| 20260507204549 | 59 | 254 | 6.0 | 11.0 | 0.00 | 0.00 | 0.00 | 27 | 1009.9 |
| 20260507204052 | 59 | 275 | 6.0 | 11.0 | 0.00 | 0.00 | 0.00 | 24 | 1010.0 |
| 20260507203331 | 58 | 234 | 5.0 | 11.0 | 0.00 | 0.00 | 0.00 | 24 | 1010.0 |
| 20260507202831 | 58 | 287 | 4.0 | 10.0 | 0.00 | 0.00 | 0.00 | 25 | 1010.0 |
| 20260507202331 | 58 | 290 | 5.0 | 13.0 | 0.00 | 0.00 | 0.00 | 27 | 1010.1 |
| 20260507201832 | 59 | 298 | 6.0 | 13.0 | 0.00 | 0.00 | 0.00 | 28 | 1010.1 |
| 20260507201331 | 59 | 355 | 6.0 | 13.0 | 0.00 | 0.00 | 0.00 | 24 | 1010.0 |
| 20260507200831 | 58 | 309 | 5.0 | 10.0 | 0.00 | 0.00 | 0.00 | 25 | 1010.0 |
| 20260507200558 | 58 | 290 | 6.0 | 15.0 | 0.00 | 0.00 | 0.00 | 28 | 1010.1 |
| 20260507195831 | 59 | 283 | 7.0 | 15.0 | 0.00 | 0.00 | 0.00 | 27 | 1010.4 |
| 20260507195331 | 59 | 298 | 5.0 | 15.0 | 0.00 | 0.00 | 0.00 | 28 | 1010.3 |
| 20260507195056 | 59 | 294 | 5.0 | 13.0 | 0.00 | 0.00 | 0.00 | 27 | 1010.3 |
| 20260507194556 | 58 | 311 | 6.0 | 13.0 | 0.00 | 0.00 | 0.00 | 27 | 1010.4 |
| 20260507193831 | 57 | 221 | 7.0 | 13.0 | 0.00 | 0.00 | 0.00 | 28 | 1010.4 |
| 20260507193331 | 58 | 309 | 7.0 | 13.0 | 0.00 | 0.00 | 0.00 | 27 | 1010.6 |
| 20260507192824 | 58 | 288 | 4.0 | 12.0 | 0.00 | 0.00 | 0.00 | 28 | 1010.5 |
| 20260507192540 | 58 | 315 | 5.0 | 12.0 | 0.00 | 0.00 | 0.00 | 30 | 1010.5 |
| 20260507191813 | 59 | 287 | 7.0 | 18.0 | 0.00 | 0.00 | 0.00 | 28 | 1010.5 |
| 20260507191307 | 59 | 308 | 7.0 | 18.0 | 0.00 | 0.00 | 0.00 | 33 | 1010.6 |
| 20260507190801 | 58 | 300 | 5.0 | 13.0 | 0.00 | 0.00 | 0.00 | 30 | 1010.5 |
| 20260507190254 | 58 | 308 | 5.0 | 11.0 | 0.00 | 0.00 | 0.00 | 32 | 1010.6 |
| 20260507190011 | 58 | 290 | 7.0 | 15.0 | 0.00 | 0.00 | 0.00 | 29 | 1010.7 |
| 20260507185508 | 58 | 290 | 6.0 | 15.0 | 0.00 | 0.00 | 0.00 | 30 | 1010.6 |
| 20260507184737 | 58 | 227 | 5.0 | 11.0 | 0.00 | 0.00 | 0.00 | 34 | 1010.5 |
| 20260507184231 | 59 | 284 | 7.0 | 13.0 | 0.00 | 0.00 | 0.00 | 32 | 1010.6 |
| 20260507183724 | 59 | 296 | 5.0 | 13.0 | 0.00 | 0.00 | 0.00 | 31 | 1010.5 |
| 20260507183219 | 58 | 241 | 4.0 | 8.0 | 0.00 | 0.00 | 0.00 | 33 | 1010.6 |
| 20260507182712 | 57 | 294 | 5.0 | 12.0 | 0.00 | 0.00 | 0.00 | 34 | 1010.7 |
| 20260507182206 | 58 | 279 | 5.0 | 12.0 | 0.00 | 0.00 | 0.00 | 32 | 1010.6 |
| 20260507181701 | 57 | 250 | 4.0 | 11.0 | 0.00 | 0.00 | 0.00 | 34 | 1010.6 |
| 20260507181154 | 58 | 290 | 5.0 | 11.0 | 0.00 | 0.00 | 0.00 | 33 | 1010.6 |
| 20260507180649 | 58 | 9 | 5.0 | 10.0 | 0.00 | 0.00 | 0.00 | 34 | 1010.8 |
| 20260507180405 | 58 | 325 | 4.0 | 12.0 | 0.00 | 0.00 | 0.00 | 33 | 1010.8 |
| 20260507175637 | 57 | 270 | 5.0 | 12.0 | 0.00 | 0.00 | 0.00 | 34 | 1010.8 |
| 20260507175131 | 58 | 309 | 6.0 | 12.0 | 0.00 | 0.00 | 0.00 | 33 | 1010.8 |
| 20260507174624 | 59 | 274 | 5.0 | 13.0 | 0.00 | 0.00 | 0.00 | 36 | 1010.9 |
| 20260507174602 | 58 | 306 | 7.0 | 17.0 | 0.00 | 0.00 | 0.00 | 38 | 1010.9 |
| 20260507173835 | 57 | 307 | 7.0 | 17.0 | 0.00 | 0.00 | 0.00 | 34 | 1010.9 |
| 20260507173106 | 57 | 322 | 6.0 | 15.0 | 0.00 | 0.00 | 0.00 | 32 | 1011.1 |
| 20260507172600 | 57 | 270 | 6.0 | 12.0 | 0.00 | 0.00 | 0.00 | 34 | 1011.2 |
| 20260507172054 | 56 | 279 | 6.0 | 12.0 | 0.00 | 0.00 | 0.00 | 34 | 1011.3 |
| 20260507171548 | 57 | 242 | 5.0 | 11.0 | 0.00 | 0.00 | 0.00 | 34 | 1011.3 |
| 20260507171042 | 57 | 305 | 5.0 | 11.0 | 0.00 | 0.00 | 0.00 | 36 | 1011.3 |
| 20260507170536 | 56 | 284 | 5.0 | 11.0 | 0.00 | 0.00 | 0.00 | 40 | 1011.4 |
| 20260507170031 | 55 | 304 | 4.0 | 11.0 | 0.00 | 0.00 | 0.00 | 41 | 1011.5 |
| 20260507165525 | 56 | 283 | 5.0 | 11.0 | 0.00 | 0.00 | 0.00 | 39 | 1011.4 |
| 20260507165019 | 56 | 327 | 5.0 | 11.0 | 0.00 | 0.00 | 0.00 | 42 | 1011.6 |
| 20260507164734 | 55 | 278 | 2.0 | 7.0 | 0.00 | 0.00 | 0.00 | 43 | 1011.6 |
| 20260507164224 | 54 | 225 | 2.0 | 6.0 | 0.00 | 0.00 | 0.00 | 45 | 1011.6 |
| 20260507163501 | 54 | 235 | 3.0 | 8.0 | 0.00 | 0.00 | 0.00 | 47 | 1011.6 |
| 20260507162955 | 53 | 338 | 3.0 | 8.0 | 0.00 | 0.00 | 0.00 | 47 | 1011.6 |
| 20260507162710 | 52 | 240 | 3.0 | 8.0 | 0.00 | 0.00 | 0.00 | 48 | 1011.6 |
| 20260507161942 | 52 | 20 | 3.0 | 8.0 | 0.00 | 0.00 | 0.00 | 48 | 1011.8 |
| 20260507161655 | 51 | 219 | 2.0 | 4.0 | 0.00 | 0.00 | 0.00 | 50 | 1011.8 |
| 20260507160930 | 51 | 286 | 2.0 | 5.0 | 0.00 | 0.00 | 0.00 | 57 | 1011.9 |
| 20260507160424 | 50 | 15 | 2.0 | 5.0 | 0.00 | 0.00 | 0.00 | 56 | 1011.9 |
| 20260507155918 | 51 | 5 | 2.0 | 7.0 | 0.00 | 0.00 | 0.00 | 55 | 1011.9 |
| 20260507155412 | 51 | 268 | 3.0 | 7.0 | 0.00 | 0.00 | 0.00 | 56 | 1012.0 |
| 20260507154907 | 50 | 221 | 2.0 | 6.0 | 0.00 | 0.00 | 0.00 | 56 | 1012.0 |
| 20260507154401 | 50 | 302 | 3.0 | 8.0 | 0.00 | 0.00 | 0.00 | 57 | 1012.0 |
| 20260507153854 | 49 | 220 | 4.0 | 8.0 | 0.00 | 0.00 | 0.00 | 56 | 1012.1 |
| 20260507153349 | 49 | 192 | 4.0 | 9.0 | 0.00 | 0.00 | 0.00 | 60 | 1012.1 |
| 20260507153102 | 49 | 209 | 4.0 | 9.0 | 0.00 | 0.00 | 0.00 | 60 | 1012.2 |
| 20260507152338 | 48 | 178 | 3.0 | 9.0 | 0.00 | 0.00 | 0.00 | 63 | 1012.2 |
| 20260507151830 | 47 | 228 | 3.0 | 9.0 | 0.00 | 0.00 | 0.00 | 60 | 1012.3 |
| 20260507151325 | 48 | 182 | 2.0 | 6.0 | 0.00 | 0.00 | 0.00 | 64 | 1012.4 |
| 20260507150818 | 47 | 237 | 2.0 | 7.0 | 0.00 | 0.00 | 0.00 | 67 | 1012.5 |
| 20260507150533 | 47 | 264 | 3.0 | 7.0 | 0.00 | 0.00 | 0.00 | 65 | 1012.6 |
| 20260507145806 | 47 | 244 | 3.0 | 7.0 | 0.00 | 0.00 | 0.00 | 66 | 1012.7 |
| 20260507145301 | 46 | 219 | 2.0 | 5.0 | 0.00 | 0.00 | 0.00 | 69 | 1012.6 |
| 20260507144755 | 45 | 223 | 2.0 | 4.0 | 0.00 | 0.00 | 0.00 | 72 | 1012.7 |
| 20260507144248 | 45 | 219 | 2.0 | 6.0 | 0.00 | 0.00 | 0.00 | 70 | 1012.8 |
| 20260507144002 | 45 | 261 | 2.0 | 7.0 | 0.00 | 0.00 | 0.00 | 72 | 1012.9 |
| 20260507143238 | 44 | 247 | 3.0 | 7.0 | 0.00 | 0.00 | 0.00 | 72 | 1013.0 |
| 20260507142956 | 44 | 246 | 2.0 | 5.0 | 0.00 | 0.00 | 0.00 | 75 | 1013.1 |
| 20260507142225 | 42 | 274 | 1.0 | 4.0 | 0.00 | 0.00 | 0.00 | 77 | 1013.1 |
| 20260507141718 | 41 | 259 | 1.0 | 4.0 | 0.00 | 0.00 | 0.00 | 77 | 1013.2 |
| 20260507141212 | 41 | 227 | 2.0 | 4.0 | 0.00 | 0.00 | 0.00 | 78 | 1013.2 |
| 20260507140933 | 40 | 222 | 2.0 | 4.0 | 0.00 | 0.00 | 0.00 | 78 | 1013.3 |
| 20260507140201 | 40 | 222 | 2.0 | 6.0 | 0.00 | 0.00 | 0.00 | 78 | 1013.2 |
| 20260507135655 | 40 | 238 | 2.0 | 6.0 | 0.00 | 0.00 | 0.00 | 78 | 1013.3 |
| 20260507135148 | 39 | 234 | 2.0 | 5.0 | 0.00 | 0.00 | 0.00 | 78 | 1013.3 |
| 20260507135126 | 39 | 226 | 1.0 | 5.0 | 0.00 | 0.00 | 0.00 | 78 | 1013.5 |
| 20260507134142 | 38 | 107 | 0.0 | 0.0 | 0.00 | 0.00 | 0.00 | 78 | 1013.5 |
| 20260507133641 | 38 | 107 | 0.0 | 0.0 | 0.00 | 0.00 | 0.00 | 78 | 1013.5 |
| 20260507133139 | 38 | 107 | 1.0 | 3.0 | 0.00 | 0.00 | 0.00 | 79 | 1013.6 |
| 20260507132902 | 37 | 107 | 1.0 | 3.0 | 0.00 | 0.00 | 0.00 | 80 | 1013.5 |
| 20260507132136 | 37 | 105 | 0.0 | 3.0 | 0.00 | 0.00 | 0.00 | 79 | 1013.6 |
| 20260507131636 | 37 | 105 | 1.0 | 3.0 | 0.00 | 0.00 | 0.00 | 80 | 1013.5 |
| 20260507131135 | 37 | 105 | 1.0 | 3.0 | 0.00 | 0.00 | 0.00 | 80 | 1013.4 |
| 20260507130634 | 36 | 95 | 1.0 | 3.0 | 0.00 | 0.00 | 0.00 | 81 | 1013.4 |
| 20260507130133 | 36 | 95 | 1.0 | 3.0 | 0.00 | 0.00 | 0.00 | 83 | 1013.4 |
| 20260507125632 | 35 | 48 | 1.0 | 3.0 | 0.00 | 0.00 | 0.00 | 83 | 1013.5 |
| 20260507125356 | 35 | 47 | 0.0 | 2.0 | 0.00 | 0.00 | 0.00 | 84 | 1013.5 |
| 20260507124629 | 34 | 47 | 0.0 | 2.0 | 0.00 | 0.00 | 0.00 | 85 | 1013.4 |
| 20260507124129 | 34 | 20 | 0.0 | 0.0 | 0.00 | 0.00 | 0.00 | 85 | 1013.3 |
| 20260507123629 | 33 | 20 | 0.0 | 0.0 | 0.00 | 0.00 | 0.00 | 85 | 1013.4 |
| 20260507123129 | 33 | 18 | 0.0 | 0.0 | 0.00 | 0.00 | 0.00 | 86 | 1013.3 |